GEFSNGP_500_meanwind_120.txt.gz
Wind_Speed
4 5 4 5 6 6 7 8 9 9 10 10 11 11 12 12 12 12 12 12 13 13 13 13 13 13 14 14 14 14 14 14 14 14 14 14 13 12 12 12 12 12 13 13
6 6 5 6 7 8 9 9 10 11 10 11 12 13 14 14 14 14 14 14 14 15 15 15 15 15 15 15 15 15 15 15 14 14 14 14 13 13 12 12 12 12 12 12
7 7 7 7 8 9 10 11 12 12 13 13 14 15 15 16 16 16 16 16 17 17 17 17 17 17 17 17 17 17 17 17 16 15 15 14 14 13 13 13 12 12 12 12
8 8 8 8 10 10 12 12 13 14 14 15 15 16 16 17 17 18 18 18 18 19 19 19 19 19 19 19 19 19 18 18 18 17 17 16 15 15 14 14 13 13 12 12
10 10 10 11 12 13 14 14 14 15 16 16 16 17 18 19 19 20 20 20 21 21 22 22 22 21 21 21 21 20 20 20 20 19 19 18 17 16 15 15 15 14 14 13
13 13 13 13 13 15 16 16 16 17 18 18 19 20 20 21 22 23 23 23 23 23 23 24 24 24 23 23 23 22 22 22 22 22 21 20 19 18 18 17 16 16 15 15
15 16 17 16 17 17 18 18 19 20 21 21 22 22 23 23 24 25 25 26 26 26 26 26 26 26 26 25 25 25 25 24 24 24 24 23 22 21 20 20 19 18 17 17
19 20 20 21 21 22 22 23 23 24 24 25 25 26 26 26 26 27 28 28 28 28 28 28 28 28 28 28 28 27 27 27 26 26 26 25 25 24 23 22 21 20 20 19
22 23 24 24 25 25 26 27 27 28 29 29 29 30 30 30 30 30 31 30 30 30 31 30 31 31 31 30 31 30 29 29 28 28 28 28 27 26 26 25 24 23 22 21
26 26 27 28 28 29 30 30 31 31 32 32 33 33 33 34 34 33 33 33 33 32 32 32 32 33 33 33 33 33 32 31 31 31 30 30 29 29 28 28 27 26 25 24
30 30 31 31 31 32 32 33 34 34 35 36 36 37 37 37 37 36 36 36 35 35 35 35 35 35 35 35 35 34 34 34 33 33 32 32 32 31 30 30 29 28 27 26
32 34 35 35 35 35 36 36 37 38 39 39 40 40 40 40 39 39 39 39 39 39 39 38 38 37 37 37 37 37 36 36 36 35 35 34 34 33 33 32 32 31 30 29
37 38 39 39 40 40 40 41 41 42 42 43 43 43 43 43 43 43 43 42 42 42 42 42 41 40 40 40 40 40 39 38 38 38 37 37 36 36 35 34 34 33 32 32
41 42 43 43 44 44 45 45 45 45 45 45 46 46 46 46 46 46 46 46 45 45 45 44 44 43 43 43 43 43 42 41 41 40 40 39 39 38 38 37 36 35 35 34
45 46 46 46 47 47 48 48 48 48 48 48 48 49 49 49 49 49 49 49 49 48 48 47 46 45 45 46 46 45 45 44 43 43 42 42 41 40 40 40 39 38 37 36
47 48 49 49 49 50 50 51 51 51 51 51 51 51 52 52 52 51 52 51 51 51 50 49 49 48 48 48 49 48 48 47 46 45 45 44 44 43 42 42 41 40 39 39
49 49 50 51 51 51 52 53 53 53 53 54 54 54 54 54 54 54 54 54 54 53 53 52 51 50 50 49 49 50 49 48 48 47 46 46 45 45 44 43 43 42 41 41
50 51 51 52 52 53 53 54 54 54 55 55 55 55 55 55 56 56 56 56 55 54 53 53 53 52 51 50 49 49 49 48 48 48 47 47 46 46 45 45 44 44 43 43
51 52 52 53 53 54 54 55 55 55 55 56 55 55 55 55 56 56 55 55 54 54 53 53 53 53 52 51 50 49 49 49 48 48 48 48 47 47 46 46 46 45 45 44
52 53 53 54 54 55 56 56 55 55 55 55 55 55 54 55 55 55 55 54 54 54 53 52 51 51 51 50 50 50 50 50 49 49 49 49 48 48 47 47 46 46 45 45
53 53 54 54 55 55 56 56 56 55 55 55 55 55 55 55 55 55 55 54 52 52 51 50 49 49 49 48 48 48 49 49 49 49 48 49 48 48 47 47 46 46 45 45
53 53 54 55 55 54 55 55 55 55 55 55 55 55 54 54 53 53 53 53 51 50 49 48 47 47 47 47 47 46 47 47 47 47 47 47 48 47 47 46 45 45 45 45
53 54 54 54 54 54 54 53 53 53 52 53 53 53 53 52 51 50 49 49 48 47 46 45 45 45 45 45 45 45 45 46 46 45 45 45 46 46 45 45 44 44 43 44
54 54 54 53 52 52 51 51 51 51 51 50 50 50 50 48 47 47 46 45 44 43 42 42 41 41 42 43 43 43 43 44 45 45 44 44 44 44 44 43 43 43 43 43
52 52 51 51 50 50 50 50 50 49 48 47 47 46 45 45 44 43 42 42 41 40 39 38 38 38 39 40 40 40 41 41 42 43 43 43 43 43 42 42 42 42 42 41
51 50 50 49 48 48 48 47 47 46 46 45 44 43 43 42 42 40 39 38 38 38 38 36 36 37 37 37 37 37 38 39 39 40 41 41 41 41 41 41 40 41 41 40
46 47 47 46 45 45 45 44 44 43 43 42 41 40 40 39 38 37 36 36 36 36 36 35 35 34 35 35 34 35 36 37 37 36 37 38 39 39 40 40 40 40 40 39

GEFSNGP_500_meanwind_126.txt.gz
Wind_Speed
5 5 5 6 6 6 7 7 7 6 7 7 8 9 10 10 11 12 12 13 14 14 14 14 15 15 15 14 14 15 15 15 15 15 16 16 15 15 15 15 15 14 14 14
5 5 6 6 6 6 7 7 7 8 8 9 10 11 12 12 13 13 13 14 15 15 16 16 16 16 16 16 16 17 17 17 17 17 17 17 17 16 16 16 16 15 15 14
6 7 7 7 6 7 7 8 8 9 9 10 11 12 13 13 14 14 15 16 16 17 17 18 18 18 18 18 18 19 19 19 19 19 19 18 18 18 18 18 17 17 16 15
8 8 9 7 8 8 8 9 10 10 11 11 12 13 14 15 15 16 17 18 18 19 20 20 20 20 20 20 21 21 21 21 22 22 21 21 20 20 20 20 19 19 18 17
9 9 9 9 9 10 10 10 11 12 13 14 14 15 16 17 18 19 20 21 21 22 22 23 23 23 23 23 23 23 23 23 23 23 23 23 23 22 22 21 21 21 20 19
11 11 11 12 12 12 13 13 14 15 16 17 17 18 19 20 21 22 23 24 24 25 25 25 25 26 25 25 25 25 26 25 26 26 26 26 25 25 24 24 23 23 22 21
13 14 14 14 15 16 16 16 17 18 19 20 20 21 22 22 23 24 25 26 27 27 28 28 28 28 28 28 28 28 28 28 28 29 29 28 28 27 27 27 26 25 25 24
17 17 17 18 18 19 19 20 20 21 22 23 24 24 25 26 27 28 28 29 29 30 30 30 31 31 31 32 32 31 31 31 31 31 31 31 31 30 30 30 29 28 27 27
20 21 21 21 22 22 23 24 24 25 25 26 27 28 29 29 30 31 32 32 33 33 33 33 33 34 35 35 35 34 34 33 33 32 32 33 33 33 33 32 32 31 30 29
23 24 24 25 26 26 27 27 28 29 29 30 31 32 32 33 34 34 35 35 36 36 36 36 36 36 37 37 37 37 36 36 35 35 35 35 35 36 35 35 34 34 33 32
27 27 28 28 29 29 29 30 31 32 33 34 35 36 37 37 38 38 38 39 39 39 39 39 39 39 39 40 40 40 39 39 38 38 39 38 38 38 38 38 37 37 36 35
30 31 31 32 33 33 33 34 35 36 36 38 39 39 40 41 41 42 42 42 42 42 42 43 42 42 42 43 43 43 43 42 42 42 42 42 41 41 41 40 40 40 39 38
34 34 35 35 36 37 37 38 39 39 40 41 42 43 43 44 44 44 45 45 45 46 46 46 45 45 46 46 47 46 46 45 45 45 45 45 45 44 44 43 43 42 41 40
38 38 38 39 39 40 41 41 42 43 44 44 45 46 46 47 47 48 49 49 49 49 49 49 49 49 49 49 49 49 49 48 48 47 47 47 47 47 47 46 45 44 43 42
42 42 42 43 43 44 44 45 46 46 47 47 48 48 49 50 50 51 52 53 53 53 53 53 52 52 53 53 53 53 53 52 51 50 49 49 49 49 48 47 46 46 44 43
44 45 46 46 47 47 48 48 49 49 50 50 51 51 52 53 54 54 55 55 55 55 55 56 56 56 56 56 56 56 56 55 54 53 52 52 51 50 49 48 48 47 46 45
45 46 47 48 49 49 50 51 51 51 52 52 53 54 54 55 55 56 56 56 57 57 57 57 58 58 58 58 58 57 56 56 55 54 53 53 52 51 51 50 49 48 48 48
48 48 49 50 51 51 51 52 53 53 53 53 54 55 55 56 57 57 58 58 58 58 59 60 60 60 59 59 58 58 56 56 55 54 53 53 53 52 51 51 50 49 49 49
50 50 51 52 52 53 53 54 54 55 55 55 56 57 57 58 59 59 59 59 59 60 60 60 61 60 60 59 58 58 57 56 55 54 54 52 52 52 51 51 51 50 51 51
52 52 52 53 53 54 54 54 55 55 56 57 58 59 59 60 61 61 60 60 60 61 61 60 60 59 59 58 57 57 56 55 54 53 52 52 51 51 51 51 50 50 51 51
53 53 53 54 54 54 54 55 56 57 57 58 59 60 60 60 61 61 61 60 59 60 60 59 59 58 56 56 55 54 53 53 51 51 50 50 50 50 49 49 48 49 49 49
53 54 54 54 54 54 55 56 56 57 58 59 59 60 60 59 59 60 60 60 59 58 57 56 56 55 55 54 52 52 51 49 48 48 48 48 49 48 48 47 47 47 46 47
54 54 54 54 54 55 55 56 56 57 58 58 59 59 58 58 58 58 58 57 56 55 54 53 53 53 52 51 50 49 48 47 46 46 45 45 45 45 45 45 46 46 45 45
54 54 54 54 55 55 55 56 56 57 57 58 58 57 57 57 56 56 55 54 53 52 51 51 51 49 47 47 47 46 45 45 44 43 42 42 42 43 43 43 43 44 44 43
55 54 54 54 55 55 55 55 56 56 56 56 55 55 55 54 54 52 51 51 50 49 48 48 47 46 45 45 44 43 42 41 41 40 39 39 40 40 41 40 40 41 42 42
53 53 53 53 53 53 54 54 53 53 53 53 52 52 52 51 50 49 48 47 46 46 45 44 43 42 41 40 39 38 37 38 38 38 37 37 37 37 38 38 37 38 39 39
51 51 51 50 50 50 50 50 50 49 50 49 49 48 48 47 46 46 45 44 43 43 42 41 39 38 37 36 35 34 34 34 34 33 33 33 33 34 34 36 35 35 35 36

GEFSNGP_500_meanwind_132.txt.gz
Wind_Speed
9 9 8 8 8 8 8 8 8 8 8 8 8 8 8 8 8 8 8 9 10 10 11 11 12 13 13 14 14 15 15 16 16 16 17 17 17 17 17 17 17 17 17 17
9 9 9 8 8 8 8 8 9 9 9 9 9 9 9 9 9 9 10 11 11 12 12 13 13 14 14 15 16 16 17 17 18 18 18 19 19 19 19 19 19 18 18 18
10 10 10 9 8 9 10 10 10 10 10 10 10 10 10 10 11 11 12 12 13 13 14 15 15 15 16 17 17 18 18 19 19 20 20 20 21 21 21 21 21 20 20 19
11 11 12 10 10 10 11 11 11 10 11 11 11 11 11 12 12 13 14 14 15 16 16 17 17 18 19 19 20 20 20 21 21 22 22 23 23 23 23 23 23 23 22 22
13 13 12 11 11 11 11 12 12 12 12 12 13 13 13 14 14 15 16 17 18 18 19 19 20 20 21 21 22 22 23 23 24 24 25 25 25 26 26 26 26 26 25 25
14 14 13 12 13 13 13 13 13 14 14 14 15 15 15 16 17 18 18 19 20 21 21 22 22 23 23 24 24 25 25 26 26 27 28 28 29 29 29 29 29 28 28 28
15 16 15 15 14 15 15 15 15 15 16 16 17 17 18 19 19 20 21 21 22 23 23 24 24 25 26 26 27 28 28 29 29 30 31 31 32 32 32 32 32 31 31 30
17 18 17 17 17 17 17 17 17 18 18 19 19 20 20 21 22 22 23 24 25 25 26 27 27 28 29 29 30 30 31 32 33 33 34 34 34 34 35 35 34 34 34 34
19 19 19 19 19 19 20 20 20 20 21 21 22 23 23 24 24 25 26 27 28 28 29 30 30 31 32 32 33 34 35 36 36 37 37 38 38 37 37 37 37 38 38 37
22 22 22 22 22 22 22 22 23 23 24 24 25 25 26 27 27 28 29 30 31 32 32 33 34 35 36 36 37 37 38 38 39 39 40 40 40 40 41 41 41 41 40 40
24 24 25 25 25 25 25 25 26 26 27 27 28 29 29 30 31 32 33 34 35 35 36 37 38 39 39 40 40 40 41 41 42 42 43 43 44 44 44 44 44 43 43 42
27 27 27 27 27 27 28 28 28 29 30 31 31 32 33 34 35 36 36 37 38 39 40 41 42 42 43 43 43 44 45 45 46 46 46 46 47 47 46 46 46 45 44 44
30 30 30 30 30 30 31 31 32 32 33 34 34 35 36 37 38 39 40 41 42 43 43 44 45 45 46 46 47 48 48 49 50 50 50 50 49 49 49 48 48 47 46 46
33 33 34 34 34 34 34 35 35 36 36 37 38 39 39 40 41 43 44 44 45 46 46 47 47 48 49 49 50 51 52 52 53 53 53 53 52 52 51 51 50 49 48 48
36 36 36 37 37 38 38 38 38 39 39 40 41 42 43 44 45 46 46 47 48 48 49 49 50 50 51 52 53 55 55 55 55 55 55 56 55 55 54 53 53 52 50 49
38 38 39 39 39 40 40 40 41 41 42 43 44 44 45 46 47 48 49 50 50 50 51 52 52 53 54 55 57 57 58 58 58 57 57 57 57 57 56 54 53 53 51 50
39 39 40 40 40 41 41 42 43 43 44 44 45 46 47 48 49 50 51 51 52 52 53 54 54 55 57 58 59 59 59 59 59 58 58 57 57 56 55 54 53 52 51 51
41 41 41 41 42 42 42 43 44 45 46 46 47 48 49 50 51 51 52 52 52 53 55 56 57 58 58 59 59 59 59 59 59 58 57 56 56 55 55 53 52 51 50 50
41 42 42 43 44 44 45 46 47 47 48 49 50 50 51 51 52 52 53 54 55 55 56 57 58 59 59 59 59 59 59 58 58 57 56 55 55 54 53 51 50 49 49 49
44 44 44 45 46 46 47 48 49 49 50 51 51 51 52 52 53 54 54 55 56 57 57 58 58 58 59 59 59 59 58 58 57 56 55 54 53 51 50 49 48 48 48 47
45 45 46 46 47 48 49 49 50 50 51 52 52 52 52 52 53 55 55 55 56 57 57 58 58 58 58 59 58 58 57 57 56 55 54 52 50 49 48 47 47 47 47 47
46 47 47 48 49 49 50 51 51 52 52 52 53 53 53 53 54 55 55 56 56 57 57 57 57 57 57 57 57 56 56 55 54 53 51 49 47 47 46 45 46 45 45 46
47 48 48 49 50 50 51 52 53 53 53 53 53 54 54 54 55 55 55 55 56 56 56 56 56 56 56 56 56 55 54 53 52 50 49 47 46 45 44 43 44 44 44 44
48 49 50 51 51 52 52 52 53 53 53 54 54 54 54 54 54 55 56 56 56 56 55 55 54 55 55 54 54 53 52 50 49 48 46 45 44 43 43 42 42 41 41 42
48 49 50 50 50 51 51 52 52 53 53 53 54 54 54 55 55 55 56 55 55 55 54 53 53 53 53 52 51 50 48 47 46 44 43 41 41 40 40 39 39 38 38 38
48 48 49 49 50 50 50 51 51 52 52 53 53 53 54 54 54 54 54 53 53 52 51 50 50 50 49 48 47 45 44 43 41 40 39 38 38 38 37 36 36 35 35 34
48 49 49 49 49 49 49 50 50 50 51 51 51 51 52 52 52 51 51 50 49 48 48 48 47 46 44 43 41 41 39 38 37 37 36 35 35 34 34 34 33 32 32 31

GEFSNGP_500_meanwind_138.txt.gz
Wind_Speed
9 9 9 10 11 12 12 12 11 12 11 10 10 9 9 8 7 7 7 7 7 8 8 8 9 9 9 10 11 12 13 13 14 14 15 15 16 16 17 17 17 18 18 18
9 9 10 10 11 12 12 13 13 11 10 11 11 11 10 9 9 9 9 8 9 9 10 10 10 11 12 12 13 14 15 15 15 16 16 17 17 18 18 19 19 19 19 19
10 10 11 11 10 11 12 13 14 12 11 12 12 12 12 11 10 10 10 11 11 11 11 11 12 12 13 14 15 16 16 17 17 17 18 19 20 20 20 21 21 22 21 22
12 12 13 11 11 12 12 13 14 13 13 13 13 13 13 13 12 12 12 12 13 13 13 13 14 15 16 17 17 18 18 18 19 19 20 21 21 22 23 23 23 24 24 24
15 15 14 14 13 14 14 15 15 15 14 14 14 15 14 14 14 14 14 14 15 15 16 16 17 18 18 19 19 19 20 20 21 22 22 23 23 24 25 25 26 26 27 27
17 17 17 15 15 15 16 16 15 15 16 16 16 16 15 15 16 16 17 17 17 18 19 19 20 20 21 21 21 22 23 23 24 25 25 26 26 26 27 28 28 29 30 30
19 19 19 17 16 17 18 17 17 17 17 17 18 17 17 18 18 19 19 20 20 20 21 21 22 23 23 24 24 25 26 27 27 28 28 29 29 29 30 30 31 32 33 34
21 21 22 19 20 20 19 19 19 19 19 19 19 20 20 20 21 21 22 22 23 23 23 24 25 25 26 26 27 28 29 29 30 31 32 33 33 33 34 35 35 36 37 37
24 24 22 21 22 22 22 22 22 21 22 22 22 23 23 23 24 24 24 25 25 26 26 27 27 28 29 30 30 31 32 32 33 34 35 36 37 37 38 39 40 40 41 41
25 25 25 24 24 24 24 24 24 24 24 24 25 25 25 26 26 27 27 28 28 29 29 30 30 31 32 33 33 34 35 36 37 37 39 40 41 41 42 42 43 44 45 45
28 27 27 27 27 27 26 26 26 27 27 27 27 28 28 29 29 30 30 31 31 31 32 33 34 34 35 36 37 38 39 39 40 41 42 43 43 44 45 45 46 47 48 48
30 30 29 29 29 29 29 29 29 29 29 30 30 30 31 32 32 33 33 34 34 35 36 36 37 38 38 39 40 41 42 43 44 45 45 46 47 47 48 49 49 50 51 51
32 32 31 31 31 31 31 31 31 32 32 32 33 33 33 34 34 35 36 37 37 38 39 39 40 41 41 42 43 44 45 46 47 47 48 49 50 50 51 51 52 53 53 53
35 35 34 33 33 33 33 34 34 34 35 35 35 36 36 37 37 38 39 39 40 40 41 42 42 43 44 45 45 47 48 49 50 50 51 51 52 53 54 55 55 55 54 54
38 38 38 36 36 35 36 36 37 37 37 37 37 38 38 39 39 40 40 41 42 42 43 44 45 46 47 48 49 50 51 51 52 53 54 55 55 56 57 57 56 56 55 54
40 40 40 39 39 39 39 39 39 39 40 40 40 40 41 41 41 42 43 43 44 45 46 47 48 49 50 51 52 52 53 54 55 56 57 57 57 58 57 57 56 56 56 55
41 41 41 41 41 41 41 41 42 42 42 42 42 42 42 43 43 44 44 45 46 47 48 49 50 51 52 53 54 54 55 56 57 58 58 58 58 57 57 57 57 57 56 55
41 42 42 42 42 42 42 42 43 43 43 44 44 44 44 45 45 45 46 47 48 49 50 52 53 54 54 55 56 56 57 57 58 58 57 57 57 57 57 57 57 57 55 54
40 41 41 42 42 42 43 43 43 43 44 44 45 45 46 46 47 48 49 50 51 52 53 54 55 56 56 56 57 57 58 57 57 57 57 57 56 57 57 57 56 56 55 54
40 41 42 42 43 43 43 44 44 45 45 46 47 48 49 49 50 51 52 53 54 55 55 56 57 57 57 57 58 57 57 57 57 57 57 57 58 58 57 56 56 55 55 54
42 43 43 44 45 45 46 46 46 47 48 49 49 50 51 52 52 53 54 55 55 56 56 56 57 57 57 57 58 58 57 57 57 57 58 58 59 58 57 56 55 55 54 53
44 44 44 45 45 46 46 47 48 49 49 50 51 52 52 53 54 54 55 55 56 56 56 56 56 57 57 58 58 58 58 58 58 58 58 59 59 58 57 55 54 53 52 50
44 45 45 46 46 47 47 48 49 49 50 51 52 52 53 54 54 54 55 55 56 56 56 56 56 57 57 58 58 58 57 57 57 57 58 58 57 56 55 54 52 50 49 47
44 45 46 46 47 48 48 49 50 50 51 52 52 52 53 53 54 54 55 55 55 56 56 56 56 56 57 57 57 57 57 57 57 58 57 56 55 54 53 51 49 47 46 45
44 45 46 46 47 48 49 49 50 50 51 52 53 53 54 54 55 55 55 55 55 55 55 55 55 56 56 56 56 56 56 57 57 56 55 54 52 51 49 47 45 44 43 41
45 46 47 47 48 49 49 50 50 51 52 53 54 54 54 55 55 55 55 55 55 55 55 55 55 55 55 56 55 55 55 55 55 54 52 51 48 47 44 42 41 40 38 37
47 47 48 49 50 50 51 51 52 52 53 54 54 54 54 55 55 55 55 55 55 55 55 55 55 54 54 54 53 53 52 52 51 49 47 45 43 42 40 38 37 36 34 34

GEFSNGP_500_meanwind_144.txt.gz
Wind_Speed
13 13 12 12 13 13 12 10 9 8 8 9 9 9 9 9 9 9 10 9 9 9 8 8 8 8 8 9 8 8 9 9 9 9 10 10 11 12 13 13 14 14 14 14
14 13 12 12 12 12 12 11 11 10 9 9 9 9 9 10 9 10 10 9 9 9 9 9 9 9 9 9 9 10 10 10 11 11 12 12 13 14 15 15 15 16 16 16
15 14 13 12 12 13 12 12 12 11 10 10 10 10 10 10 10 10 11 10 10 10 10 10 9 9 10 10 11 12 12 12 12 13 14 14 15 16 16 17 18 18 18 19
15 15 14 12 12 12 12 12 12 11 11 11 11 12 11 11 10 11 11 11 11 11 11 11 11 11 12 12 13 13 14 14 15 15 16 17 17 18 19 19 20 20 21 21
17 16 14 14 13 13 13 13 13 12 12 12 12 13 13 13 13 13 13 13 13 13 13 13 13 14 15 15 16 16 16 17 17 18 19 19 20 21 21 22 23 23 24 25
19 18 16 14 14 14 15 14 14 13 13 13 13 14 14 14 15 15 14 15 15 15 16 16 17 17 18 18 18 19 19 20 20 21 21 22 23 24 25 25 26 26 27 28
21 20 18 17 17 17 16 14 15 14 14 14 15 15 16 16 16 16 16 17 17 18 18 19 20 20 21 21 21 21 22 22 23 24 25 25 26 27 28 28 29 30 30 31
23 23 20 19 19 19 18 17 17 16 16 16 17 17 18 18 18 19 19 19 20 20 21 22 22 23 23 23 24 24 24 25 26 27 28 29 30 30 31 32 32 33 34 34
25 24 22 22 22 21 21 20 19 19 19 19 19 19 20 20 21 21 21 22 22 23 23 24 24 24 25 26 26 27 27 28 29 30 31 32 33 33 34 35 36 36 37 37
26 25 24 24 24 23 23 22 22 22 22 21 21 22 22 22 23 23 23 24 24 25 25 26 26 27 27 28 29 30 30 31 32 33 33 34 35 36 37 38 39 39 40 40
26 26 26 25 25 25 25 24 24 24 24 24 24 24 24 24 25 25 25 26 26 27 27 28 29 29 30 31 31 32 33 34 35 35 36 37 38 39 40 41 42 42 43 43
27 27 27 27 27 27 27 27 27 27 26 26 26 27 27 27 27 28 28 29 29 29 30 31 31 32 33 33 34 35 36 37 37 38 39 40 41 42 43 44 45 46 46 47
29 29 29 29 29 29 29 29 29 29 29 29 29 30 30 30 30 31 31 31 32 32 33 33 34 35 35 36 37 38 39 40 41 42 42 43 44 45 46 47 48 49 49 50
32 32 32 31 31 31 31 31 32 32 32 32 32 32 33 33 33 33 34 34 34 35 35 36 37 37 38 39 40 41 42 43 44 45 46 46 47 48 49 50 51 52 52 53
33 34 34 34 34 33 33 33 33 33 34 34 34 35 35 35 35 36 36 36 37 37 38 38 39 41 42 42 43 44 45 46 47 47 48 49 50 51 52 53 54 54 54 54
33 34 35 35 35 36 35 35 35 35 36 36 36 36 36 37 37 37 38 38 39 39 40 41 42 44 44 45 45 46 47 48 49 50 51 52 53 54 55 56 56 56 56 56
33 34 35 36 36 37 37 37 37 37 37 38 38 37 38 38 39 39 40 41 41 42 43 43 44 45 46 47 47 48 49 50 51 52 53 54 55 56 57 58 58 58 57 57
34 34 34 35 36 37 37 38 38 39 39 40 40 40 40 40 41 41 42 43 43 43 44 45 46 47 48 48 49 50 51 52 53 54 55 56 57 58 58 58 58 58 57 57
37 36 36 36 36 36 37 37 38 39 39 39 40 40 40 41 42 43 43 44 44 45 46 47 48 48 49 50 51 52 53 54 55 56 57 58 58 58 57 57 57 58 58 57
37 37 38 38 38 38 38 38 38 39 39 39 40 41 41 42 43 43 44 45 45 46 47 48 49 50 51 52 53 54 55 56 57 57 57 57 57 57 57 58 58 58 58 58
39 39 39 39 39 39 40 40 40 40 41 41 41 42 43 43 44 44 45 46 47 48 49 50 51 52 53 54 55 55 56 57 57 57 57 57 57 58 58 59 59 59 59 59
40 40 41 41 41 41 41 41 42 42 42 43 43 43 44 44 45 46 47 48 48 49 50 51 52 53 54 55 56 56 57 57 57 58 58 58 58 59 59 59 59 59 58 58
40 41 41 41 42 42 43 43 43 44 44 44 44 45 45 46 47 48 48 49 50 51 52 52 53 54 55 55 56 56 56 57 57 58 59 59 59 59 59 59 58 58 57 57
41 41 41 42 42 43 43 44 45 45 45 45 45 46 47 47 48 49 50 51 52 53 53 54 54 55 55 55 56 56 57 57 58 58 58 58 58 58 58 58 57 57 56 55
40 40 41 41 42 43 44 44 45 45 45 46 46 47 48 49 49 50 51 51 52 52 53 54 54 55 56 56 56 56 57 57 58 58 58 57 57 57 57 56 56 55 54 53
40 40 40 41 41 42 42 43 44 45 46 46 47 48 48 49 50 50 51 52 52 53 53 54 55 56 56 56 56 56 56 56 56 56 56 56 56 56 55 54 53 52 50 49
41 42 42 42 42 43 44 45 46 46 47 48 48 49 50 51 51 52 52 53 54 54 54 55 55 56 56 55 55 55 55 56 56 56 55 55 54 53 51 50 49 48 46 44